Regional Weather Roundup
Issued by NWS

Home | Current Version | Previous Version | Graphics & Text | Print | Product List | Glossary On
Versions: 1 2 3 4 5 6 7 8 9 10 11 12 13 14 15 16 17 18 19 20 21 22 23 24 25 26 27 28 29 30 31 32 33 34 35 36 37 38 39 40 41 42 43 44 45 46 47 48 49 50
000
ASUS43 KDTX 271201
RWRMI
MICHIGAN HOURLY REGIONAL WEATHER ROUNDUP
NATIONAL WEATHER SERVICE DETROIT/PONTIAC MI
800 AM EDT WED MAY 27 2015

NOTE: "FAIR" INDICATES FEW OR NO CLOUDS BELOW 12,000 FEET WITH NO
SIGNIFICANT WEATHER AND/OR OBSTRUCTION TO VISIBILITY.

MIZ047>049-052>055-059>063-066>070-074>076-081>083-271300-
SOUTHEAST LOWER MICHIGAN

CITY           SKY/WX    TMP DP  RH WIND       PRES   REMARKS
ADRIAN         SUNNY     66  61  84 SW13      29.99R
6HR MIN TEMP:  64; 6HR MAX TEMP:  67;

ALMA           CLOUDY    68  62  83 SW12G18   29.87S
6HR MIN TEMP:  64; 6HR MAX TEMP:  68;

ANN ARBOR      SUNNY     67  61  81 SW15G22   29.96S
BAD AXE        PTSUNNY   67  60  78 S15G21    29.88S
CARO           SUNNY     68  61  78 SW14G20   29.88S
DETROIT CITY   SUNNY     69  61  75 SW17      29.95F
6HR MIN TEMP:  67; 6HR MAX TEMP:  84;

DETROIT        PTSUNNY   70  62  76 S14G22    29.97S
6HR MIN TEMP:  67; 6HR MAX TEMP:  71;

FLINT          MOSUNNY   70  60  70 SW13      29.92R
6HR MIN TEMP:  67; 6HR MAX TEMP:  71;

GROSSE ILE     SUNNY     70  63  78 S13       29.97S
HILLSDALE      SUNNY     67  63  87 SW13G18   29.98R
HOWELL         MOSUNNY   68  61  77 SW13G22   29.93S

CITY           SKY/WX    TMP DP  RH WIND       PRES   REMARKS
JACKSON        SUNNY     68  60  75 SW18G24   29.95R
6HR MIN TEMP:  65; 6HR MAX TEMP:  68;

LAMBERTVILLE   SUNNY     70  61  73 SW10      29.99S
LANSING        MOSUNNY   68  60  75 SW15      29.91R
6HR MIN TEMP:  64; 6HR MAX TEMP:  68;

LAPEER         PTSUNNY   68  59  73 SW12G22   29.92R
MASON          MOSUNNY   66  59  79 SW8       29.93S
MONROE         SUNNY     70  63  78 SW9       29.97R
PONTIAC        MOSUNNY   67  61  81 SW12G20   29.94R
6HR MIN TEMP:  64; 6HR MAX TEMP:  68;

PORT HOPE        N/A    N/A N/A N/A VRB7      29.85R
PORT HURON     PTSUNNY   68  64  88 S10G17    29.94F
TRI CITIES     PTSUNNY   69  61  75 SW15G25   29.87R
6HR MIN TEMP:  67; 6HR MAX TEMP:  70;

MIDLAND        PTSUNNY   68  60  75 S14       29.84S
TROY           MOSUNNY   68  63  83 SW8G17    29.96S
SAGINAW HB     PTSUNNY   68  63  83 SW15      29.87R
$$
MIZ043>046-050>051-056>058-064>065-071>073-077>080-271300-
SOUTHWEST LOWER MICHIGAN

CITY           SKY/WX    TMP DP  RH WIND       PRES   REMARKS
BATTLE CREEK   MOSUNNY   67  60  78 SW16      29.94R
6HR MIN TEMP:  65; 6HR MAX TEMP:  67;

BENTON HARBOR  SUNNY     67  61  81 SW17G24   29.93R
6HR MIN TEMP:  65; 6HR MAX TEMP:  69;

BIG RAPIDS     CLOUDY    63  59  87 SW9G17    29.85R
6HR MIN TEMP:  62; 6HR MAX TEMP:  64;

COLDWATER      SUNNY     66  60  79 SW12G17   29.97R
6HR MIN TEMP:  64; 6HR MAX TEMP:  66;

FREMONT        CLOUDY    60  59  97 SW14      29.86S FOG
HOLLAND        MOSUNNY   66  60  81 SW17G28   29.91R
6HR MIN TEMP:  64; 6HR MAX TEMP:  69; 6HR PCP: TRACE;

GRAND RAPIDS   PTSUNNY   68  61  78 SW14      29.89R
6HR MIN TEMP:  66; 6HR MAX TEMP:  68;

IONIA          FAIR      69  61  75 SW16      29.88S
KALAMAZOO      MOSUNNY   68  60  75 SW14      29.94S
6HR MIN TEMP:  65; 6HR MAX TEMP:  68;

LUDINGTON      MOSUNNY   58  54  87 SW16G24   29.84R
6HR MIN TEMP:  56; 6HR MAX TEMP:  66;

MARSHALL       MOSUNNY  N/A N/A N/A SW14      29.94S
MOUNT PLEASANT CLOUDY    67  61  80 SW16      29.85R
6HR MIN TEMP:  64; 6HR MAX TEMP:  67;

MUSKEGON       PTSUNNY   61  58  90 SW16G24   29.87S
6HR MIN TEMP:  58; 6HR MAX TEMP:  64; 6HR PCP:  0.02;

SOUTH HAVEN    SUNNY     68  60  74 SW14G25   29.92R
$$
MIZ016>042-271300-
NORTHERN LOWER MICHIGAN

CITY           SKY/WX    TMP DP  RH WIND       PRES   REMARKS
ALPENA         MOSUNNY   67  61  81 S14G22    29.76F
6HR MIN TEMP:  64; 6HR MAX TEMP:  67;

BEAVER ISLAND  LGT RAIN  51  50  97 SW20G26   29.70R VSB 1/4
6HR MIN TEMP:  51; 6HR MAX TEMP:  63;

BELLAIRE       CLOUDY    63  56  79 SW14G24   29.77R
6HR MIN TEMP:  62; 6HR MAX TEMP:  65;

CADILLAC       PTSUNNY   63  58  83 SW17G26   29.82R
CHARLEVOIX     CLOUDY    60  58  92 SW15G22   29.76R
6HR MIN TEMP:  60; 6HR MAX TEMP:  65;

FRANKFORT      CLOUDY    59  51  75 SW12G21   29.79R
GAYLORD        CLOUDY    63  58  83 SW22G29   29.77R
6HR MIN TEMP:  61; 6HR MAX TEMP:  64;

HARBOR SPRINGS CLOUDY    59  56  89 SW18G26   29.72R
HOUGHTON LAKE  MOSUNNY   64  59  83 SW16G22   29.82R
6HR MIN TEMP:  62; 6HR MAX TEMP:  65; 6HR PCP: TRACE;

MANISTEE       CLOUDY    61  54  77 SW17      29.83R
OSCODA         MOSUNNY   68  63  84 SW13G22   29.81R
PELLSTON       LGT RAIN  61  59  93 SW18G29   29.72R FOG
6HR MIN TEMP:  61; 6HR MAX TEMP:  65; 6HR PCP:  0.01;

ROGERS CITY    SUNNY     66  62  84 S13       29.74S
TRAVERSE CITY  CLOUDY    63  56  78 SW14G23   29.78R
6HR MIN TEMP:  63; 6HR MAX TEMP:  67;

$$
MIZ007>008-015-271300-
EASTERN UPPER MICHIGAN

CITY           SKY/WX    TMP DP  RH WIND       PRES   REMARKS
KINROSS        CLOUDY    61  61 100 S7        29.69S
6HR MIN TEMP:  61; 6HR MAX TEMP:  63;

MACKINAC ISLAN DRIZZLE   59  59  99 S14G22    29.69S
6HR MIN TEMP:  59; 6HR MAX TEMP:  64;

NEWBERRY       CLOUDY    52  51  99 SW10G21   29.66R FOG
6HR MIN TEMP:  52; 6HR MAX TEMP:  62;

S. S. MARIE    CLOUDY    61  59  93 S12       29.68S FOG
6HR MIN TEMP:  59; 6HR MAX TEMP:  62; 6HR PCP: TRACE;

$$
MIZ004>006-011>014-085-271300-
CENTRAL UPPER MICHIGAN

CITY           SKY/WX    TMP DP  RH WIND       PRES   REMARKS
MANISTIQUE     CLOUDY    51  50  96 NW13      29.68R
6HR MIN TEMP:  46; 6HR MAX TEMP:  51; 6HR PCP:  0.11;

ESCANABA       CLOUDY    52  48  87 CALM      29.72R
6HR MIN TEMP:  50; 6HR MAX TEMP:  52;

MENOMINEE      CLOUDY    59  55  88 NW6       29.74R
6HR MIN TEMP:  57; 6HR MAX TEMP:  63;

SAWYER-GWINN   CLOUDY    54  52  94 NW10      29.72R
$$
MIZ001>003-009>011-084-271300-
WESTERN UPPER MICHIGAN

CITY           SKY/WX    TMP DP  RH WIND       PRES   REMARKS
IRON MOUNTAIN  LGT RAIN  54  52  93 NW9       29.75R
6HR MIN TEMP:  54; 6HR MAX TEMP:  57; 6HR PCP:  0.02;

HOUGHTON       FOG       50  49  96 NW13      29.74R VSB 1/4
6HR MIN TEMP:  45; 6HR MAX TEMP:  53; 6HR PCP:  0.07;

COPPER HARBOR    N/A     44  42  93 N6        29.72R
6HR MIN TEMP:  40; 6HR MAX TEMP:  48; 6HR PCP:  0.23;

IRONWOOD       CLOUDY    54  54 100 W7        29.79S
6HR MIN TEMP:  48; 6HR MAX TEMP:  54;

$$

ABBREVIATIONS USED IN REMARKS
   TC - TEMPERATURE IN CELSIUS
  WCI - WIND CHILL INDEX
   HX - HEAT INDEX
  VSB - VISIBILITY



USA.gov is the U.S. government's official web portal to all federal, state and local government web resources and services.